This is the latest recevied weather packets stored in our database for station/object KC5DP. If no packets are shown the sender has not sent any weather packets the latest 10 day(s).
| Time | Temp. | Humidity | Pressure | Rain* | Wind** | Luminosity | Snow |
|---|---|---|---|---|---|---|---|
| 1777236356 | 28.89° C | 68% | 1009.9 hPa | 0 mm | - | 211 W/m² | - |
| 1777236053 | 29.44° C | 71% | 1010.2 hPa | 0 mm | - | 563 W/m² | - |
| 1777235749 | 28.89° C | 68% | 1010.2 hPa | 0 mm | - | 525 W/m² | - |
| 1777235447 | 29.44° C | 66% | 1009.9 hPa | 0 mm | - | 624 W/m² | - |
| 1777235143 | 29.44° C | 71% | 1010.3 hPa | 0 mm | - | 637 W/m² | - |
| 1777234839 | 28.33° C | 70% | 1010.1 hPa | 0 mm | - | 604 W/m² | - |
| 1777234535 | 28.89° C | 68% | 1010.2 hPa | 0 mm | - | 590 W/m² | - |
| 1777234234 | 29.44° C | 69% | 1010.4 hPa | 0 mm | - | 620 W/m² | - |
| 1777233931 | 28.33° C | 69% | 1010.4 hPa | 0 mm | - | 614 W/m² | - |
| 1777233627 | 28.89° C | 68% | 1010.6 hPa | 0 mm | - | 254 W/m² | - |
| 1777233326 | 28.89° C | 68% | 1010.3 hPa | 0 mm | - | 596 W/m² | - |
| 1777233022 | 28.89° C | 66% | 1010.7 hPa | 0 mm | - | 601 W/m² | - |
| 1777232720 | 29.44° C | 67% | 1010.5 hPa | 0 mm | - | 635 W/m² | - |
| 1777232418 | 29.44° C | 66% | 1010.7 hPa | 0 mm | - | 655 W/m² | - |
| 1777232115 | 28.89° C | 65% | 1010.7 hPa | 0 mm | - | 666 W/m² | - |
| 1777231812 | 28.33° C | 67% | 1010.7 hPa | 0 mm | - | 675 W/m² | - |
| 1777231508 | 28.89° C | 67% | 1010.8 hPa | 0 mm | - | 681 W/m² | - |
| 1777231204 | 29.44° C | 64% | 1010.8 hPa | 0 mm | - | 693 W/m² | - |
| 1777230901 | 28.89° C | 65% | 1011 hPa | 0 mm | - | 699 W/m² | - |
| 1777230596 | 28.89° C | 64% | 1010.9 hPa | 0 mm | - | 702 W/m² | - |
| 1777230292 | 28.33° C | 66% | 1010.8 hPa | 0 mm | - | 713 W/m² | - |
| 1777229989 | 28.33° C | 68% | 1010.9 hPa | 0 mm | - | 710 W/m² | - |
| 1777229685 | 28.89° C | 66% | 1011.2 hPa | 0 mm | - | 715 W/m² | - |
| 1777229382 | 28.33° C | 68% | 1011.2 hPa | 0 mm | - | 717 W/m² | - |
| 1777229079 | 28.33° C | 66% | 1011.2 hPa | 0 mm | - | 726 W/m² | - |
* Rain latest hour (hover to see other rain measurements)
** Current wind speed in m/s (hover to see current wind gust speed)